Voltar ao catálogo

STARLINK-30344

AtivoComunicaçõesVLEO
NORAD 57737·PAYLOAD·🇺🇸 United States

Lançado Sep 1, 2023 de Cape Canaveral Space Force Station

Loading…

Próximas Passagens (próximas 24 horas)

TLE

AtualizadoSource: CelesTrak SupGP

Época: Sep 14, 2026, 21:37 UTC

1 57737C 23131F   26257.90118056  .00014486  00000+0  52466-3 0  2576
2 57737  43.0005 213.2572 0001434 257.8587 306.1556 15.27572820    15

Acompanhe STARLINK-30344 em tempo real com AllMySat

Download on the App Store